Location: City of Moscow
(46.7306°N, 116.9989°W)
Time: 13:18:46
(UTC+00:00)

Cosmos 1626 Rocket - Pass Details

Date: 19 March 2026
Orbit: 595 x 624 km, 82.5° (Epoch: 18 April)

Event Time Altitude Azimuth Distance (km) Brightness Sun altitude
Rises 10:33:31 0° 8° (N) 2,893 7.6 -32.4°
Reaches altitude 10° 10:36:55 10° 36° (NE) 1,974 7.0 -31.9°
Maximum altitude 10:39:01 13° 64° (ENE) 1,763 6.6 -31.6°
Drops below altitude 10° 10:41:06 10° 93° (E) 1,958 6.6 -31.4°
Sets 10:44:26 0° 121° (ESE) 2,849 7.2 -30.9°
